DateTimeUTC,F1_A11,F1_S11,BsB_S11,BsG_S11,BsR_S11,BbsB_S11,BbsG_S11,BbsR_S11,BaB_A11,BaG_A11,BaR_A11,Tu_S11,T_S11,Uu_S11,U_S11,P_S11,T1_A11
2021-11-28T20:00:00Z,00000200,21000000,,,,,,,0000.18,0000.36,-000.02,18.3,25.1,,00.0,0632.2,30.8
2021-11-28T20:01:00Z,00000200,21000000,,,,,,,-000.01,-000.12,0000.05,18.3,25.1,,00.0,0632.2,30.8
2021-11-28T20:02:00Z,00000200,21000000,,,,,,,-000.25,-000.14,-000.14,18.3,25.1,,00.0,0632.2,30.8
2021-11-28T20:03:00Z,00000200,61000000,,,,,,,0000.19,0000.43,0000.17,18.3,25.1,,00.0,0632.2,30.8
2021-11-28T20:04:00Z,00000200,41000000,0000.47,0000.05,-000.13,-000.14,0000.32,-000.16,0000.34,0000.21,0000.13,18.6,25.0,,00.0,0633.0,30.8
2021-11-28T20:05:00Z,00000200,01000000,0001.38,0000.79,0000.28,0000.06,0000.38,0000.01,0000.50,0000.35,0000.43,18.7,24.9,,00.0,0633.0,30.8
2021-11-28T20:06:00Z,00000200,01000000,0001.15,0000.24,0000.30,0000.30,0000.10,0000.04,0000.02,0000.47,0000.38,18.7,24.9,,00.0,0633.0,30.8
2021-11-28T20:07:00Z,00000200,01000000,0001.00,0000.70,0000.48,0000.58,0000.23,0000.16,0000.69,0000.11,0000.24,18.6,24.9,,00.0,0633.0,30.8
2021-11-28T20:08:00Z,00000200,01000000,0001.42,0000.55,0000.12,0000.27,0000.37,0000.17,0000.16,0000.47,0000.58,18.6,24.9,,00.0,0633.0,30.8
2021-11-28T20:09:00Z,00000200,01000000,0001.19,0000.84,0000.03,0000.30,0000.37,0000.26,0000.41,0000.10,0000.01,18.5,24.9,,00.0,0633.0,30.8
2021-11-28T20:10:00Z,00000200,01000000,0000.94,0000.75,0000.35,0000.06,0000.18,0000.16,0000.68,0000.29,0000.19,18.5,24.9,,00.0,0633.0,30.8
2021-11-28T20:11:00Z,00000200,01000000,0000.61,0000.70,0000.41,0000.19,0000.58,0000.09,-000.10,0000.53,0000.32,18.5,24.9,,00.0,0633.0,30.8
2021-11-28T20:12:00Z,00000200,01000000,0000.50,0000.46,0000.51,0000.27,0000.52,-000.00,0000.70,0000.36,0000.06,18.5,24.9,,00.0,0633.1,30.8
2021-11-28T20:13:00Z,00000200,01000000,0000.96,0000.64,0000.14,-000.18,0000.12,0000.04,0000.19,0000.34,0000.17,18.6,24.9,,00.0,0633.1,30.8
2021-11-28T20:14:00Z,00000200,01000000,0001.19,0000.72,0000.15,0000.38,0000.66,-000.02,0000.33,0000.15,0000.55,18.6,24.9,,00.0,0633.1,30.8
2021-11-28T20:15:00Z,00000200,01000000,0000.60,0000.67,0000.24,0000.38,0000.07,0000.03,0000.60,0000.51,-000.05,18.6,24.9,,00.0,0633.1,30.8
2021-11-28T20:16:00Z,00000200,01000000,0000.69,0000.54,0000.12,0000.08,0000.23,0000.23,0000.50,0000.43,0000.47,18.6,24.9,,00.0,0633.1,30.8
2021-11-28T20:17:00Z,00000200,01000000,0001.24,0000.49,0000.35,0000.53,0000.32,0000.32,0000.08,0000.22,0000.40,18.6,24.9,,00.0,0633.2,30.8
2021-11-28T20:18:00Z,00000200,01000000,0001.51,0000.62,0000.40,0000.25,0000.24,0000.38,0000.53,0000.34,0000.26,18.6,24.9,,00.0,0633.2,30.8
2021-11-28T20:19:00Z,00000200,01000000,0001.78,0000.51,0000.54,0000.41,0000.28,0000.12,0000.48,0000.52,0000.38,18.6,24.9,,00.0,0633.2,30.8
2021-11-28T20:20:00Z,00000200,01000000,0000.63,0000.57,0000.36,0000.20,-000.00,0000.07,0000.20,0000.12,-000.28,18.7,24.9,,00.0,0633.2,30.8
2021-11-28T20:21:00Z,00000200,01000000,0001.44,0000.59,0000.02,0000.25,0000.27,0000.21,0000.49,0000.20,0000.47,18.7,24.9,,00.0,0633.2,30.8
2021-11-28T20:22:00Z,00000200,01000000,0001.06,0000.19,0000.19,-000.27,0000.22,0000.16,-000.28,0000.09,-000.02,18.7,24.9,,00.0,0633.3,30.8
2021-11-28T20:23:00Z,00000200,01000000,0000.77,0000.42,0000.29,0000.03,0000.34,0000.09,0000.21,0000.42,0000.22,18.7,24.9,,00.0,0633.3,30.8
2021-11-28T20:24:00Z,00000200,01000000,0000.87,0000.51,0000.47,-000.18,0000.03,0000.53,0000.62,-000.20,0000.00,18.7,24.9,,00.0,0633.4,30.8
2021-11-28T20:25:00Z,00000200,01000000,0000.77,0000.42,0000.18,0000.07,0000.24,0000.05,-000.28,-000.09,-000.05,18.7,24.9,,00.0,0633.4,30.8
2021-11-28T20:26:00Z,00000200,01000000,0000.29,0000.56,0000.16,0000.11,0000.37,0000.17,0000.01,0000.51,0000.26,18.7,24.9,,00.0,0633.5,30.8
2021-11-28T20:27:00Z,00000200,01000000,0000.16,0000.17,0000.35,0000.58,0000.39,0000.26,0000.41,0000.07,-000.04,18.7,24.9,,00.0,0633.4,30.8
2021-11-28T20:28:00Z,00000200,01000000,0001.20,0000.54,0000.17,0000.29,0000.30,0000.05,0000.55,0000.14,0000.32,18.8,24.9,,00.0,0633.5,30.8
2021-11-28T20:29:00Z,00000200,01000000,0001.16,0000.59,0000.20,0000.15,0000.39,0000.22,-000.04,0000.33,-000.23,18.8,24.9,,00.0,0633.5,30.8
2021-11-28T20:30:00Z,00000200,01000000,0000.92,0000.61,0000.10,-000.10,0000.15,0000.36,0000.27,-000.14,0000.26,18.8,24.9,,00.0,0633.6,30.8
2021-11-28T20:31:00Z,00000200,01000000,0001.12,0000.92,0000.37,0000.21,0000.19,-000.23,-000.20,0000.17,-000.31,18.8,25.0,,00.0,0633.6,30.8
2021-11-28T20:32:00Z,00000200,01000000,0000.74,0000.62,0000.21,0000.03,-000.01,-000.13,0000.02,-000.08,0000.45,18.8,25.0,,00.0,0633.6,30.8
2021-11-28T20:33:00Z,00000200,01000000,0000.60,0000.35,0000.08,0000.58,0000.24,-000.01,0000.06,0000.12,-000.45,18.8,25.0,,00.0,0633.6,30.8
2021-11-28T20:34:00Z,00000200,01000000,0001.23,0000.42,0000.28,0000.48,0000.36,0000.04,-000.11,-000.04,-000.23,18.8,25.0,,00.0,0633.7,30.8
2021-11-28T20:35:00Z,00000200,01000000,0000.16,0000.77,-000.05,0000.22,0000.12,-000.11,0000.06,-000.07,0000.17,18.8,25.0,,00.0,0633.7,30.8
2021-11-28T20:36:00Z,00000200,01000000,0000.28,0000.82,0000.64,0000.35,0000.09,0000.18,0000.26,0000.17,0000.18,18.8,25.0,,00.0,0633.8,30.8
2021-11-28T20:37:00Z,00000200,01000000,0001.89,0000.30,0000.09,0000.33,0000.07,0000.13,0000.09,-000.35,-000.34,18.8,25.0,,00.0,0633.8,30.8
2021-11-28T20:38:00Z,00000200,01000000,0000.77,0000.59,0000.22,0000.78,0000.38,0000.15,-000.12,0000.22,0000.19,18.9,25.0,,00.0,0633.8,30.8
2021-11-28T20:39:00Z,00000200,01000000,0000.64,0000.49,-000.07,-000.01,0000.46,0000.13,0000.27,0000.39,0000.16,18.9,25.0,,00.0,0633.8,30.8
2021-11-28T20:40:00Z,00000200,01000000,0000.99,0000.31,0000.35,-000.01,-000.15,0000.17,0000.11,-000.36,-000.22,18.9,25.0,,00.0,0633.8,30.8
2021-11-28T20:41:00Z,00000200,01000000,0000.99,0000.50,0000.37,0000.47,0000.29,0000.24,0000.07,0000.26,0000.03,18.9,25.0,,00.0,0633.8,30.8
2021-11-28T20:42:00Z,00000200,01000000,0000.81,0000.32,0000.42,0000.49,0000.20,0000.13,0000.69,0000.40,0000.20,18.9,25.0,,00.0,0633.7,30.8
2021-11-28T20:43:00Z,00000200,01000000,0000.99,0000.46,0000.03,0000.47,0000.17,0000.12,0000.34,0000.17,0000.46,18.9,25.0,,00.0,0633.7,30.8
2021-11-28T20:44:00Z,00000200,01000000,0000.91,0000.82,0000.19,0000.22,0000.29,0000.19,0000.02,0000.38,0000.21,18.9,25.1,,00.0,0633.7,30.8
2021-11-28T20:45:00Z,00000200,01000000,0001.18,0000.39,0000.32,0000.07,0000.28,0000.01,0000.73,0000.54,0000.69,18.9,25.1,,00.0,0633.6,30.8
2021-11-28T20:46:00Z,00000200,01000000,0001.17,0000.22,0000.03,-000.11,0000.44,-000.13,0000.41,0000.55,0000.33,19.0,25.1,,00.0,0633.6,30.8
2021-11-28T20:47:00Z,00000200,01000000,0000.34,0000.59,0000.20,-000.11,0000.19,-000.11,0000.71,0000.47,0000.15,19.0,25.1,,00.0,0633.6,30.8
2021-11-28T20:48:00Z,00000200,01000000,0001.31,0000.60,0000.41,-000.21,0000.24,0000.15,0000.29,0000.60,0000.43,19.0,25.1,,00.0,0633.6,30.8
2021-11-28T20:49:00Z,00000200,01000000,0001.46,0000.22,0000.30,-000.19,0000.31,0000.41,0000.69,0000.42,0000.44,19.0,25.1,,00.0,0633.5,30.8
2021-11-28T20:50:00Z,00000200,01000000,0001.13,0000.89,-000.15,-000.32,0000.19,0000.54,0000.30,0000.48,0000.25,19.0,25.1,,00.0,0633.5,30.8
2021-11-28T20:51:00Z,00000200,01000000,0001.18,0000.33,0000.01,0000.33,0000.09,0000.07,0000.35,0000.61,0000.53,19.0,25.1,,00.0,0633.5,30.8
2021-11-28T20:52:00Z,00000200,01000000,0000.88,0000.28,0000.32,-000.12,0000.35,0000.49,0000.60,0000.16,0000.43,19.0,25.1,,00.0,0633.5,30.8
2021-11-28T20:53:00Z,00000200,01000000,0000.88,0000.69,0000.17,0000.06,0000.28,0000.19,0000.50,0000.42,0000.43,19.0,25.1,,00.0,0633.5,30.8
2021-11-28T20:54:00Z,00000200,01010000,0000.47,0000.34,0000.42,0000.55,0000.21,0000.56,0000.23,0000.16,0000.21,18.9,25.1,,00.0,0633.5,30.8
2021-11-28T20:55:00Z,00000200,01000000,-000.22,0000.68,0000.12,-000.21,0000.23,0000.14,0000.56,0000.78,0000.27,18.9,25.1,,00.0,0633.5,30.8
2021-11-28T20:56:00Z,00000200,01000000,0000.52,0000.26,-000.01,-000.23,0000.01,-000.18,0000.71,0000.29,0000.31,18.9,25.1,,00.0,0633.5,30.8
2021-11-28T20:57:00Z,00000200,41000000,,,,,,,-000.75,-000.59,-000.30,18.9,25.1,,00.0,0633.5,30.8
2021-11-28T20:58:00Z,00000200,61000000,,,,,,,0000.40,0000.34,0000.16,18.6,25.2,,00.0,0632.6,30.8
2021-11-28T20:59:00Z,00000200,21000000,,,,,,,0000.14,0000.36,0000.22,18.6,25.3,,00.0,0632.6,30.8
